Find Starlink 6357

NORAD ID: 56783 Int'l Des: 2023-078 Owner: SPXS Country: US Constellation: starlink operational
LEOCIRCULAR

当前视图

正在加载3D地球...

About Starlink 6357

Starlink 6357 (NORAD 56783) is a starlink constellation satellite (v1.5) launched May 31, 2023 by SPXS of US. It operates in LEO, CIRCULAR orbit with a mass of 305.00 kg.

关于 Starlink 6357

正在加载描述...

即将过境

Passes for default location (London). Set your location on the main map for personalized predictions.

高度历史

Loading altitude history...

两行轨道根数

1 56783U 23078S 26169.97875630 .00000030 00000-0 10285-4 0 9991
2 56783 70.0010 69.1529 0002472 263.1239 96.9639 14.98332445168349
Epoch: Jun 18, 2026 • Age: 8 hours

当前状态

高度 595.3 km
速度 7.56 km/s
星下点 -67.66°S, 8.12°W
发射日期 May 31, 2023
运行时间 3 years
类型 internet

技术详情

分类 Payload
质量 305.00 kg
干质量 290.00 kg
总质量 305.00 kg
长度 0.20 m
直径 2.80 m
跨度 9.00 m
形状 Box + pan
制造商 SPXS
平台类型 Starlink
阶段状态 In Orbit
所有者/国家 SPXS/US

Most Searched